TimeEDT,TemperatureF,Dew PointF,Humidity,Sea Level PressureIn,VisibilityMPH,Wind Direction,Wind SpeedMPH,Gust SpeedMPH,PrecipitationIn,Events,Conditions,WindDirDegrees,DateUTC
12:15 AM,68.0,64.4,88,30.01,10.0,Calm,Calm,-,N/A,,Overcast,0,2013-05-12 04:15:00
12:35 AM,68.0,64.4,88,30.01,10.0,SSW,4.6,-,N/A,,Mostly Cloudy,200,2013-05-12 04:35:00
12:53 AM,69.1,66.0,90,30.00,-9999.0,SSW,4.6,-,N/A,,Unknown,210,2013-05-12 04:53:00
12:55 AM,68.0,64.4,88,30.01,10.0,SSW,3.5,-,N/A,,Overcast,210,2013-05-12 04:55:00
1:15 AM,68.0,66.2,94,30.01,10.0,SW,4.6,-,N/A,,Mostly Cloudy,230,2013-05-12 05:15:00
1:35 AM,68.0,66.2,94,29.99,10.0,Calm,Calm,-,N/A,,Scattered Clouds,0,2013-05-12 05:35:00
1:53 AM,68.0,66.0,93,29.97,-9999.0,Calm,Calm,-,N/A,,Unknown,0,2013-05-12 05:53:00
1:55 AM,68.0,64.4,88,29.99,10.0,Calm,Calm,-,N/A,,Clear,0,2013-05-12 05:55:00
2:15 AM,66.2,64.4,94,30.00,7.0,Calm,Calm,-,N/A,,Scattered Clouds,0,2013-05-12 06:15:00
2:35 AM,66.2,64.4,94,29.99,3.0,Calm,Calm,-,N/A,,Scattered Clouds,0,2013-05-12 06:35:00
2:53 AM,68.0,64.9,90,29.97,-9999.0,Calm,Calm,-,N/A,,Unknown,0,2013-05-12 06:53:00
2:55 AM,64.4,64.4,100,29.98,4.0,Calm,Calm,-,N/A,,Scattered Clouds,0,2013-05-12 06:55:00
3:15 AM,64.4,64.4,100,29.98,7.0,Calm,Calm,-,N/A,,Scattered Clouds,0,2013-05-12 07:15:00
3:35 AM,64.4,64.4,100,29.97,0.8,Calm,Calm,-,N/A,,Mist,0,2013-05-12 07:35:00
3:53 AM,64.9,63.0,93,29.96,-9999.0,Calm,Calm,-,N/A,,Unknown,0,2013-05-12 07:53:00
3:55 AM,64.4,62.6,94,29.97,1.5,Calm,Calm,-,N/A,,Mist,0,2013-05-12 07:55:00
4:15 AM,64.4,62.6,94,29.97,1.8,Calm,Calm,-,N/A,,Mist,0,2013-05-12 08:15:00
4:35 AM,62.6,62.6,100,29.98,5.0,Calm,Calm,-,N/A,,Clear,0,2013-05-12 08:35:00
4:53 AM,64.9,63.0,93,29.97,-9999.0,Calm,Calm,-,N/A,,Unknown,0,2013-05-12 08:53:00
4:55 AM,62.6,62.6,100,29.98,4.0,Calm,Calm,-,N/A,,Clear,0,2013-05-12 08:55:00
5:35 AM,62.6,62.6,100,29.99,5.0,Calm,Calm,-,N/A,,Clear,0,2013-05-12 09:35:00
5:53 AM,64.9,63.0,93,29.98,-9999.0,Calm,Calm,-,N/A,,Unknown,0,2013-05-12 09:53:00
5:55 AM,64.4,62.6,94,30.00,7.0,Calm,Calm,-,N/A,,Clear,0,2013-05-12 09:55:00
6:15 AM,62.6,62.6,100,30.00,7.0,Calm,Calm,-,N/A,,Clear,0,2013-05-12 10:15:00
6:35 AM,62.6,62.6,100,30.01,7.0,Calm,Calm,-,N/A,,Clear,0,2013-05-12 10:35:00
6:53 AM,64.9,63.0,93,29.99,-9999.0,Calm,Calm,-,0.02,,Unknown,0,2013-05-12 10:53:00
6:55 AM,62.6,62.6,100,30.01,10.0,Calm,Calm,-,N/A,,Clear,0,2013-05-12 10:55:00
7:15 AM,62.6,62.6,100,30.01,10.0,Calm,Calm,-,N/A,,Clear,0,2013-05-12 11:15:00
7:35 AM,64.4,62.6,94,30.01,7.0,Calm,Calm,-,N/A,,Clear,0,2013-05-12 11:35:00
7:53 AM,68.0,64.9,90,30.01,-9999.0,Calm,Calm,-,0.01,,Unknown,0,2013-05-12 11:53:00
7:55 AM,64.4,64.4,100,30.02,10.0,WSW,3.5,-,N/A,,Scattered Clouds,250,2013-05-12 11:55:00
8:15 AM,68.0,64.4,88,30.03,10.0,West,4.6,-,N/A,,Mostly Cloudy,260,2013-05-12 12:15:00
8:35 AM,68.0,64.4,88,30.05,10.0,WNW,8.1,-,N/A,,Overcast,290,2013-05-12 12:35:00
8:53 AM,69.1,64.9,87,30.04,-9999.0,WNW,6.9,-,N/A,,Unknown,290,2013-05-12 12:53:00
8:55 AM,68.0,64.4,88,30.05,10.0,WNW,5.8,-,N/A,,Overcast,290,2013-05-12 12:55:00
9:15 AM,68.0,64.4,88,30.05,10.0,NW,4.6,-,N/A,,Overcast,310,2013-05-12 13:15:00
9:35 AM,68.0,66.2,94,30.05,10.0,NW,4.6,-,N/A,,Overcast,310,2013-05-12 13:35:00
9:53 AM,71.1,64.9,81,30.03,-9999.0,NW,5.8,-,N/A,,Unknown,320,2013-05-12 13:53:00
9:55 AM,68.0,66.2,94,30.05,10.0,NW,4.6,-,N/A,,Overcast,310,2013-05-12 13:55:00
10:15 AM,68.0,64.4,88,30.05,10.0,NW,3.5,-,N/A,,Overcast,310,2013-05-12 14:15:00
10:35 AM,69.8,64.4,83,30.05,10.0,NW,3.5,-,N/A,,Overcast,320,2013-05-12 14:35:00
10:53 AM,73.0,64.9,76,30.03,-9999.0,NNW,4.6,-,0.01,,Unknown,330,2013-05-12 14:53:00
10:55 AM,69.8,64.4,83,30.05,10.0,NNW,3.5,-,N/A,,Overcast,330,2013-05-12 14:55:00
11:15 AM,69.8,64.4,83,30.05,10.0,WNW,4.6,-,N/A,,Overcast,300,2013-05-12 15:15:00
11:35 AM,71.6,64.4,78,30.06,10.0,NW,4.6,-,N/A,,Overcast,310,2013-05-12 15:35:00
11:53 AM,75.0,66.0,73,30.04,-9999.0,Variable,4.6,-,N/A,,Unknown,0,2013-05-12 15:53:00
11:55 AM,71.6,66.2,83,30.05,10.0,NW,3.5,-,N/A,,Overcast,320,2013-05-12 15:55:00
12:15 PM,71.6,64.4,78,30.06,10.0,NW,3.5,-,N/A,,Overcast,320,2013-05-12 16:15:00
12:35 PM,73.4,64.4,73,30.05,10.0,West,6.9,-,N/A,,Mostly Cloudy,280,2013-05-12 16:35:00
12:53 PM,78.1,66.0,66,30.03,-9999.0,NW,5.8,-,N/A,,Unknown,310,2013-05-12 16:53:00
12:55 PM,75.2,64.4,69,30.04,10.0,NW,6.9,-,N/A,,Scattered Clouds,310,2013-05-12 16:55:00
1:15 PM,77.0,64.4,65,30.03,10.0,WSW,5.8,-,N/A,,Scattered Clouds,250,2013-05-12 17:15:00
1:35 PM,77.0,64.4,65,30.03,10.0,Calm,Calm,-,N/A,,Scattered Clouds,0,2013-05-12 17:35:00
1:53 PM,82.0,64.9,56,30.01,-9999.0,Variable,3.5,-,N/A,,Unknown,0,2013-05-12 17:53:00
1:55 PM,78.8,64.4,61,30.03,10.0,West,3.5,-,N/A,,Scattered Clouds,280,2013-05-12 17:55:00
2:15 PM,77.0,62.6,61,30.02,10.0,West,3.5,-,N/A,,Scattered Clouds,280,2013-05-12 18:15:00
2:35 PM,78.8,64.4,61,30.02,10.0,West,5.8,-,N/A,,Scattered Clouds,270,2013-05-12 18:35:00
2:53 PM,82.0,64.0,54,30.00,-9999.0,WNW,5.8,-,N/A,,Unknown,300,2013-05-12 18:53:00
2:55 PM,78.8,62.6,57,30.01,10.0,NW,5.8,-,N/A,,Mostly Cloudy,310,2013-05-12 18:55:00
3:15 PM,78.8,62.6,57,30.01,10.0,WNW,9.2,-,N/A,,Mostly Cloudy,290,2013-05-12 19:15:00
3:35 PM,78.8,62.6,57,30.01,10.0,NW,6.9,-,N/A,,Mostly Cloudy,320,2013-05-12 19:35:00
3:53 PM,82.9,64.0,53,29.99,-9999.0,West,8.1,-,N/A,,Unknown,280,2013-05-12 19:53:00
3:55 PM,80.6,62.6,54,30.00,10.0,West,8.1,-,N/A,,Scattered Clouds,280,2013-05-12 19:55:00
4:15 PM,78.8,62.6,57,30.00,10.0,WNW,6.9,-,N/A,,Scattered Clouds,300,2013-05-12 20:15:00
4:35 PM,78.8,62.6,57,29.99,10.0,WNW,5.8,-,N/A,,Scattered Clouds,290,2013-05-12 20:35:00
4:53 PM,82.0,63.0,52,29.98,-9999.0,NW,9.2,-,N/A,,Unknown,310,2013-05-12 20:53:00
4:55 PM,78.8,60.8,54,29.99,10.0,NW,10.4,-,N/A,,Scattered Clouds,310,2013-05-12 20:55:00
5:15 PM,78.8,62.6,57,29.99,10.0,WNW,8.1,16.1,N/A,,Scattered Clouds,300,2013-05-12 21:15:00
5:35 PM,78.8,62.6,57,29.99,10.0,West,5.8,-,N/A,,Clear,280,2013-05-12 21:35:00
5:53 PM,81.0,63.0,54,29.99,-9999.0,WNW,6.9,-,N/A,,Unknown,290,2013-05-12 21:53:00
5:55 PM,78.8,60.8,54,30.00,10.0,West,8.1,-,N/A,,Scattered Clouds,280,2013-05-12 21:55:00
6:15 PM,77.0,64.4,65,30.00,10.0,SW,6.9,-,N/A,,Mostly Cloudy,230,2013-05-12 22:15:00
6:35 PM,77.0,64.4,65,29.99,10.0,WSW,8.1,-,N/A,,Scattered Clouds,240,2013-05-12 22:35:00
6:53 PM,78.1,64.9,64,29.98,-9999.0,WSW,5.8,-,N/A,,Unknown,250,2013-05-12 22:53:00
6:55 PM,75.2,64.4,69,30.00,10.0,WSW,6.9,-,N/A,,Clear,240,2013-05-12 22:55:00
7:15 PM,75.2,64.4,69,30.00,10.0,West,9.2,-,N/A,,Clear,270,2013-05-12 23:15:00
7:35 PM,73.4,64.4,73,30.00,10.0,West,5.8,-,N/A,,Clear,270,2013-05-12 23:35:00
7:53 PM,75.0,66.0,73,30.00,-9999.0,WSW,6.9,-,N/A,,Unknown,250,2013-05-12 23:53:00
7:55 PM,73.4,64.4,73,30.02,10.0,West,8.1,-,N/A,,Clear,260,2013-05-12 23:55:00
8:15 PM,71.6,64.4,78,30.02,10.0,West,6.9,-,N/A,,Clear,260,2013-05-13 00:15:00
8:35 PM,71.6,64.4,78,30.02,10.0,West,5.8,-,N/A,,Clear,260,2013-05-13 00:35:00
8:53 PM,72.0,66.0,81,30.01,-9999.0,WSW,3.5,-,N/A,,Unknown,250,2013-05-13 00:53:00
8:55 PM,69.8,64.4,83,30.02,10.0,West,3.5,-,N/A,,Clear,260,2013-05-13 00:55:00
9:15 PM,69.8,64.4,83,30.03,10.0,Calm,Calm,-,N/A,,Clear,0,2013-05-13 01:15:00
9:35 PM,69.8,64.4,83,30.04,10.0,Calm,Calm,-,N/A,,Clear,0,2013-05-13 01:35:00
9:53 PM,70.0,66.0,87,30.04,-9999.0,WNW,3.5,-,N/A,,Unknown,290,2013-05-13 01:53:00
9:55 PM,68.0,64.4,88,30.05,10.0,WNW,3.5,-,N/A,,Clear,290,2013-05-13 01:55:00
10:15 PM,68.0,64.4,88,30.05,10.0,Calm,Calm,-,N/A,,Clear,0,2013-05-13 02:15:00
10:35 PM,68.0,64.4,88,30.07,10.0,Calm,Calm,-,N/A,,Clear,0,2013-05-13 02:35:00
10:53 PM,69.1,64.9,87,30.06,-9999.0,Calm,Calm,-,N/A,,Unknown,0,2013-05-13 02:53:00
10:55 PM,68.0,64.4,88,30.07,10.0,Calm,Calm,-,N/A,,Clear,0,2013-05-13 02:55:00
11:15 PM,68.0,64.4,88,30.07,10.0,Calm,Calm,-,N/A,,Clear,0,2013-05-13 03:15:00
11:35 PM,66.2,64.4,94,30.06,7.0,Calm,Calm,-,N/A,,Clear,0,2013-05-13 03:35:00
11:53 PM,68.0,64.0,87,30.06,-9999.0,Calm,Calm,-,N/A,,Unknown,0,2013-05-13 03:53:00
11:55 PM,66.2,64.4,94,30.07,5.0,Calm,Calm,-,N/A,,Clear,0,2013-05-13 03:55:00